1499011200.35,15169,18.56,73718.3,3.01,2.65,2.65,0,*75
1499011201.55,15170,18.56,73726.0,3.01,2.61,2.55,0,*7A
1499011202.78,15171,18.56,73720.3,3.01,2.77,2.73,0,*78
1499011204.0,15172,18.56,73722.8,3.01,2.77,2.85,0,*72
1499011205.21,15173,18.56,73716.8,3.01,2.55,2.61,0,*79
1499011206.41,15174,18.56,73714.0,2.97,2.31,2.31,0,*77
1499011207.59,15175,18.56,73714.5,3.01,2.61,2.65,0,*7C
1499011208.82,15176,18.5,73706.3,3.01,2.77,2.77,0,*7B
1499011210.05,15177,18.56,73700.0,3.05,2.59,2.59,0,*7E
1499011211.28,15178,18.56,73698.0,3.05,2.59,2.59,0,*71
1499011212.51,15179,18.5,73700.3,3.05,2.69,2.69,0,*70
1499011213.71,15180,18.56,73702.0,3.05,2.31,2.21,0,*77
1499011214.91,15181,18.56,73696.5,3.01,2.27,2.25,0,*71
1499011216.12,15182,18.56,73694.3,2.97,2.31,2.31,0,*7E
1499011217.35,15183,18.56,73690.8,2.97,2.55,2.61,0,*78
1499011218.57,15184,18.56,73696.3,3.01,2.73,2.73,0,*76
1499011219.83,15185,18.56,73692.3,2.97,2.77,2.73,0,*7D
1499011221.05,15186,18.56,73704.0,3.01,2.73,2.77,0,*70
1499011222.27,15187,18.5,73700.0,3.01,2.73,2.73,0,*75
1499011223.48,15188,18.56,73708.8,3.01,2.65,2.73,0,*7D
1499011224.7,15189,18.56,73706.5,3.01,2.73,2.73,0,*7B
1499011225.93,15190,18.56,73708.5,3.01,2.43,2.43,0,*73
1499011227.16,15191,18.56,73714.8,3.01,2.77,2.73,0,*76
1499011228.38,15192,18.5,73710.0,3.01,2.73,2.77,0,*75
1499011229.61,15193,18.56,73718.8,3.01,2.89,2.89,0,*70
1499011230.84,15194,18.56,73718.5,3.01,2.85,2.89,0,*7B
1499011232.04,15195,18.56,73720.0,3.07,2.95,2.95,0,*70
1499011233.22,15196,18.56,73716.8,3.05,2.95,2.95,0,*71
1499011234.4,15197,18.56,73710.0,3.05,2.95,2.95,0,*70
1499011235.6,15198,18.56,73708.8,3.07,2.95,2.95,0,*7D
1499011236.78,15199,18.56,73712.3,3.05,2.91,2.91,0,*7E
1499011238.01,15200,18.56,73716.0,3.07,2.81,2.91,0,*7E
1499011239.21,15201,18.56,73716.0,3.07,2.91,2.95,0,*7A
1499011240.42,15202,18.56,73708.5,3.07,2.95,2.95,0,*7D
1499011241.62,15203,18.56,73708.8,3.07,2.95,2.95,0,*7C
1499011242.82,15204,18.56,73710.3,3.07,2.95,2.95,0,*7B
1499011244.02,15205,18.56,73706.3,3.07,2.91,2.91,0,*7A
1499011245.2,15206,18.56,73706.8,3.09,2.95,2.99,0,*7B
1499011246.4,15207,18.56,73704.5,3.09,2.99,3.07,0,*70
1499011247.62,15208,18.56,73716.8,3.09,2.85,2.77,0,*74
1499011248.84,15209,18.56,73706.8,3.09,2.85,2.77,0,*75
1499011250.07,15210,18.56,73714.8,3.09,2.43,2.51,0,*73
1499011251.25,15211,18.56,73716.5,3.09,2.65,2.61,0,*75
1499011252.47,15212,18.56,73718.0,3.09,2.55,2.55,0,*72
1499011253.7,15213,18.56,73716.0,3.09,2.39,2.39,0,*73
1499011254.93,15214,18.56,73716.3,3.09,2.17,2.17,0,*74
1499011256.17,15215,18.56,73718.3,3.07,2.51,2.61,0,*78
1499011257.41,15216,18.56,73712.5,3.07,2.59,2.61,0,*73
1499011258.66,15217,18.56,73714.3,3.07,2.39,2.47,0,*70
1499011259.91,15218,18.56,73708.5,3.07,2.25,2.25,0,*76
1499011261.17,15219,18.56,73708.8,3.07,2.09,2.09,0,*77
1499011262.43,15220,18.56,73706.0,3.07,2.51,2.51,0,*7D
1499011263.64,15221,18.56,73700.0,3.07,2.61,2.61,0,*7C
1499011264.86,15222,18.56,73708.5,3.05,2.85,2.85,0,*7D
1499011266.09,15223,18.56,73700.0,3.05,2.85,2.81,0,*78
1499011267.3,15224,18.56,73702.3,3.05,2.85,2.95,0,*7A
1499011268.5,15225,18.56,73700.8,3.07,2.95,2.95,0,*78
1499011269.75,15226,18.56,73704.8,3.07,2.85,2.81,0,*7F
1499011271.01,15227,18.5,73704.8,3.07,2.81,2.73,0,*77
1499011272.25,15228,18.5,73708.3,3.07,2.59,2.61,0,*7E
1499011273.49,15229,18.5,73702.8,3.07,2.73,2.85,0,*7D
1499011274.69,15230,18.56,73706.0,3.07,2.35,2.35,0,*7C
1499011275.92,15231,18.56,73696.8,3.07,2.35,2.39,0,*71
1499011277.18,15232,18.56,73704.3,3.07,2.51,2.51,0,*7E
1499011278.41,15233,18.56,73704.0,3.05,2.69,2.69,0,*7D
1499011279.66,15234,18.56,73702.3,3.07,2.73,2.73,0,*78
1499011280.91,15235,18.56,73700.8,3.07,2.69,2.73,0,*72
1499011282.16,15236,18.56,73708.8,3.07,2.73,2.73,0,*7A
1499011283.41,15237,18.5,73712.8,3.07,2.81,2.69,0,*7D
1499011284.66,15238,18.56,73712.3,3.07,2.69,2.73,0,*7F
1499011285.92,15239,18.56,73712.3,3.07,2.59,2.51,0,*7D
1499011287.15,15240,18.56,73714.8,3.09,2.55,2.51,0,*71
1499011288.33,15241,18.5,73712.0,3.09,2.65,2.65,0,*74
1499011289.55,15242,18.56,73708.5,3.09,2.73,2.77,0,*73
1499011290.77,15243,18.56,73704.5,3.09,2.77,2.85,0,*7B
1499011292.02,15244,18.56,73708.8,3.07,2.73,2.81,0,*72
1499011293.28,15245,18.5,73708.3,3.07,2.69,2.81,0,*78
1499011294.53,15246,18.56,73708.3,3.07,2.69,2.73,0,*76
1499011295.79,15247,18.5,73706.5,3.07,2.47,2.39,0,*75
1499011296.99,15248,18.56,73700.3,3.07,2.35,2.35,0,*73
1499011298.19,15249,18.56,73710.0,3.07,2.35,2.35,0,*72
1499011299.44,15250,18.56,73712.0,3.07,2.13,2.21,0,*7B
1499011300.69,15251,18.56,73714.0,3.07,2.01,2.09,0,*73
1499011301.92,15252,18.56,73712.8,3.05,1.67,1.67,0,*7A
1499011303.14,15253,18.56,73708.8,3.05,1.51,1.55,0,*7F
1499011304.38,15254,18.5,73708.0,3.05,1.55,1.51,0,*78
1499011305.63,15255,18.5,73712.0,2.97,1.59,1.55,0,*7B
1499011306.89,15256,18.56,73712.5,2.97,1.29,1.21,0,*7C
1499011308.11,15257,18.56,73722.8,2.95,0.79,0.79,0,*77
1499011309.35,15258,18.56,73724.0,2.93,0.63,0.55,0,*7B
1499011310.58,15259,18.5,73720.0,2.93,0.41,0.21,0,*79
1499011311.79,15260,18.5,73720.0,2.89,-0.29,-0.49,0,*78
1499011312.98,15261,18.56,73722.3,2.87,-0.65,-0.73,0,*76
1499011314.23,15262,18.5,73718.5,2.85,-0.89,-0.89,0,*70
1499011315.44,15263,18.5,73716.8,2.81,-0.37,-0.45,0,*70
1499011316.67,15264,18.56,73718.0,2.79,0.47,0.47,0,*75
1499011317.89,15265,18.5,73716.3,2.75,0.47,0.37,0,*7F
1499011319.11,15266,18.56,73716.8,2.75,0.63,0.59,0,*72
1499011320.28,15267,18.56,73722.8,2.75,1.05,0.97,0,*40
1499011321.49,15268,18.56,73724.8,2.73,1.05,1.05,0,*73
1499011322.74,15269,18.5,73722.8,2.73,0.67,0.59,0,*7F
1499011323.95,15270,18.5,73710.0,2.71,0.17,0.17,0,*78
1499011325.13,15271,18.5,73702.0,2.71,-0.19,-0.19,0,*79
1499011326.34,15272,18.56,73704.3,2.67,-0.57,-0.69,0,*70
1499011327.54,15273,18.56,73702.0,2.67,-0.07,-0.11,0,*4B
1499011328.78,15274,18.5,73700.5,2.63,0.47,0.55,0,*7C
1499011329.98,15275,18.56,73702.0,2.63,1.01,1.05,0,*7A
1499011331.21,15276,18.5,73696.0,2.63,0.67,0.71,0,*7A
1499011332.45,15277,18.5,73700.3,2.63,0.83,0.79,0,*79
1499011333.68,15278,18.5,73704.3,2.65,1.33,1.51,0,*71
1499011334.91,15279,18.56,73706.3,2.65,1.89,2.05,0,*73
1499011336.16,15280,18.56,73706.8,2.63,2.05,2.17,0,*77
1499011337.38,15281,18.5,73700.8,2.65,2.09,2.21,0,*79
1499011338.62,15282,18.5,73706.3,2.65,2.39,2.43,0,*7D
1499011339.86,15283,18.5,73704.0,2.67,1.59,1.51,0,*7B
1499011341.08,15284,18.56,73708.3,2.67,1.41,1.47,0,*72
1499011342.31,15285,18.5,73698.0,2.67,1.41,1.37,0,*74
1499011343.57,15286,18.5,73692.8,2.67,1.29,1.37,0,*79
1499011344.82,15287,18.5,73702.5,2.67,1.93,1.93,0,*77
1499011346.07,15288,18.5,73702.8,2.67,1.97,1.97,0,*78
1499011347.27,15289,18.5,73702.5,2.67,1.83,1.83,0,*79
1499011348.51,15290,18.5,73702.8,2.67,1.51,1.59,0,*79
1499011349.77,15291,18.5,73698.5,2.67,1.71,1.63,0,*73
1499011351.01,15292,18.5,73702.3,2.67,1.59,1.51,0,*7B
1499011352.27,15293,18.5,73700.3,2.69,1.97,2.01,0,*70
1499011353.47,15294,18.5,73698.5,2.67,2.31,2.31,0,*75
1499011354.72,15295,18.5,73692.3,2.69,2.13,2.21,0,*7B
1499011355.97,15296,18.5,73684.3,2.69,1.97,1.97,0,*79
1499011357.22,15297,18.5,73686.8,2.67,2.01,2.01,0,*76
1499011358.48,15298,18.5,73690.3,2.69,2.13,2.21,0,*76
1499011359.73,15299,18.5,73686.8,2.67,1.63,1.63,0,*78
1499011360.93,15300,18.5,73680.5,2.69,1.83,1.75,0,*7E
1499011362.19,15301,18.5,73684.8,2.69,2.13,2.09,0,*7D
1499011363.44,15302,18.5,73688.3,2.69,2.21,2.21,0,*75
1499011364.64,15303,18.5,73688.8,2.69,2.31,2.35,0,*70
1499011365.89,15304,18.5,73692.3,2.69,2.09,2.21,0,*79
1499011367.15,15305,18.5,73698.0,2.69,2.25,2.25,0,*72
1499011368.35,15306,18.5,73704.3,2.71,2.35,2.39,0,*74
1499011369.58,15307,18.5,73706.8,2.71,2.47,2.47,0,*79
1499011370.84,15308,18.5,73694.8,2.73,2.47,2.59,0,*7B
1499011372.11,15309,18.5,73684.8,2.73,2.51,2.51,0,*75
1499011373.37,15310,18.5,73688.5,2.73,2.51,2.59,0,*75
1499011374.64,15311,18.5,73674.0,2.73,1.85,1.85,0,*7C
1499011375.89,15312,18.5,73668.0,2.73,1.89,1.89,0,*7F
1499011377.12,15313,18.5,73672.8,2.73,2.35,2.39,0,*72
1499011378.39,15314,18.5,73682.3,2.73,2.51,2.51,0,*79
1499011379.63,15315,18.5,73670.8,2.75,2.55,2.51,0,*7A
1499011380.86,15316,18.5,73678.3,2.75,2.51,2.55,0,*79
1499011382.09,15317,18.5,73680.5,2.79,2.25,2.21,0,*74
1499011383.31,15318,18.5,73680.5,2.79,2.55,2.47,0,*7C
1499011384.5,15319,18.5,73678.0,2.75,2.61,2.65,0,*76
1499011385.69,15320,18.5,73672.5,2.79,2.65,2.65,0,*74
1499011386.92,15321,18.5,73668.3,2.79,2.47,2.47,0,*75
1499011388.15,15322,18.5,73674.5,2.79,2.55,2.59,0,*7A
1499011389.41,15323,18.5,73670.8,2.81,2.47,2.47,0,*70
1499011390.65,15324,18.5,73672.3,2.81,2.59,2.65,0,*78
1499011391.91,15325,18.5,73674.3,2.81,2.77,2.85,0,*7B
1499011393.16,15326,18.5,73672.3,2.81,2.81,2.85,0,*71
1499011394.34,15327,18.5,73672.5,2.83,2.95,2.99,0,*7A
1499011395.52,15328,18.5,73680.0,2.83,2.99,2.99,0,*79
1499011396.7,15329,18.5,73676.0,2.83,2.95,2.95,0,*78
1499011397.95,15330,18.5,73682.0,2.85,2.81,2.85,0,*72
1499011399.21,15331,18.56,73684.8,2.85,2.89,2.89,0,*77
1499011400.41,15332,18.5,73680.8,2.85,2.95,2.99,0,*78
1499011401.64,15333,18.5,73682.5,2.87,2.85,2.89,0,*7B
1499011402.87,15334,18.5,73682.5,2.85,2.89,2.95,0,*7F
1499011404.07,15335,18.5,73684.3,2.89,2.99,2.99,0,*7F
1499011405.3,15336,18.5,73690.5,2.91,3.03,3.07,0,*71
1499011406.57,15337,18.5,73690.5,2.89,3.15,3.11,0,*79
1499011407.8,15338,18.5,73694.3,2.91,3.03,3.03,0,*7B
1499011409.01,15339,18.5,73696.3,2.89,2.99,2.99,0,*73
1499011410.24,15340,18.5,73698.0,2.91,3.07,3.07,0,*74
1499011411.47,15341,18.5,73696.0,2.91,3.03,3.03,0,*75
1499011412.72,15342,18.5,73700.3,2.93,3.19,3.19,0,*74
1499011413.97,15343,18.5,73694.0,2.93,3.07,3.19,0,*7A
1499011415.17,15344,18.5,73696.5,2.95,2.99,3.07,0,*72
1499011416.42,15345,18.5,73702.5,2.93,3.07,3.07,0,*73
1499011417.6,15346,18.5,73704.5,2.95,2.91,2.95,0,*72
1499011418.82,15347,18.5,73700.0,2.95,2.39,2.47,0,*7E
1499011420.0,15348,18.5,73700.5,2.95,2.91,2.99,0,*70
1499011421.26,15349,18.5,73700.3,2.97,2.89,2.89,0,*7B
1499011422.46,15350,18.5,73704.5,2.97,2.99,2.99,0,*73
1499011423.69,15351,18.5,73708.8,2.97,2.95,2.89,0,*7F
1499011424.95,15352,18.5,73712.3,2.97,3.03,3.11,0,*72
1499011426.21,15353,18.5,73714.3,2.97,3.03,3.15,0,*77
1499011427.44,15354,18.5,73714.0,3.01,2.85,2.89,0,*75
1499011428.66,15355,18.5,73706.5,3.01,2.73,2.77,0,*7C
1499011429.9,15356,18.5,73694.0,2.97,2.31,2.39,0,*7D
1499011431.1,15357,18.5,73694.0,3.01,2.89,2.95,0,*77
1499011432.35,15358,18.5,73694.8,2.97,2.85,2.77,0,*76
1499011433.55,15359,18.5,73692.5,3.01,2.89,2.95,0,*79
1499011434.75,15360,18.5,73698.8,3.01,2.55,2.61,0,*79
1499011435.99,15361,18.5,73692.8,3.01,3.03,3.03,0,*7F
1499011437.22,15362,18.5,73694.5,3.01,3.11,3.11,0,*7C
1499011438.45,15363,18.5,73702.0,3.01,3.15,3.15,0,*7D
1499011439.71,15364,18.5,73692.8,3.07,3.23,3.23,0,*7C
1499011440.94,15365,18.5,73694.3,3.05,3.07,3.11,0,*78
1499011442.18,15366,18.5,73696.8,3.05,3.11,3.11,0,*7C
1499011443.44,15367,18.5,73698.5,3.07,3.03,3.03,0,*7F
1499011444.69,15368,18.5,73706.3,3.07,3.11,3.19,0,*78
1499011445.94,15369,18.5,73704.3,3.07,3.23,3.23,0,*71
1499011447.18,15370,18.5,73708.8,3.07,3.23,3.29,0,*73
1499011448.42,15371,18.5,73702.8,3.07,3.19,3.23,0,*71
1499011449.68,15372,18.5,73704.8,3.07,3.07,3.11,0,*7C
1499011450.86,15373,18.5,73698.5,3.09,3.25,3.25,0,*74
1499011452.08,15374,18.5,73692.3,3.09,3.23,3.23,0,*73
1499011453.34,15375,18.5,73698.5,3.11,3.11,3.15,0,*7F
1499011454.57,15376,18.5,73700.8,3.09,3.15,3.11,0,*75
1499011455.83,15377,18.5,73702.3,3.11,3.15,3.15,0,*79
1499011457.05,15378,18.5,73698.8,3.11,2.95,3.07,0,*7C
1499011458.31,15379,18.5,73694.0,3.11,3.15,3.15,0,*77
1499011459.57,15380,18.5,73702.3,3.11,3.11,3.11,0,*71
1499011460.82,15381,18.5,73704.3,3.11,3.11,3.11,0,*70
1499011462.04,15382,18.5,73700.5,3.13,3.19,3.19,0,*71
1499011463.24,15383,18.5,73698.8,3.13,2.65,2.69,0,*7C
1499011464.46,15384,18.5,73690.8,3.13,2.69,2.69,0,*77
1499011465.64,15385,18.5,73694.8,3.13,2.91,2.99,0,*7E
1499011466.84,15386,18.5,73686.0,3.11,2.35,2.35,0,*77
1499011468.09,15387,18.5,73694.8,3.11,2.43,2.43,0,*76
1499011469.32,15388,18.5,73696.5,3.09,2.51,2.51,0,*70
1499011470.55,15389,18.5,73696.5,3.09,2.39,2.39,0,*71
1499011471.76,15390,18.5,73688.5,3.11,2.61,2.61,0,*70
1499011473.0,15391,18.5,73688.3,3.11,2.73,2.77,0,*75
1499011474.25,15392,18.5,73688.8,3.11,2.77,2.77,0,*72
1499011475.48,15393,18.5,73690.5,3.09,2.51,2.51,0,*7A
1499011476.73,15394,18.5,73692.0,3.07,2.09,1.97,0,*77
1499011477.98,15395,18.5,73688.5,3.07,1.63,1.63,0,*72
1499011479.21,15396,18.5,73684.3,3.05,2.01,2.01,0,*73
1499011480.43,15397,18.5,73686.3,3.05,2.21,2.21,0,*72
1499011481.66,15398,18.5,73690.0,3.05,2.25,2.25,0,*7D
1499011482.89,15399,18.5,73684.5,3.05,1.97,1.97,0,*7C
1499011484.12,15400,18.5,73692.8,3.05,2.21,2.13,0,*7A
1499011485.31,15401,18.5,73688.5,3.01,0.97,0.95,0,*7C
1499011486.56,15402,18.5,73688.8,2.97,0.87,0.83,0,*77
1499011487.78,15403,18.5,73694.8,2.95,1.43,1.51,0,*73
1499011489.02,15404,18.5,73700.0,2.93,1.89,1.89,0,*71
1499011490.26,15405,18.5,73712.3,2.93,0.71,0.71,0,*70
1499011491.51,15406,18.5,73676.0,2.89,-0.85,-0.85,0,*78
1499011492.73,15407,18.5,73672.5,2.87,0.21,0.25,0,*73
1499011493.96,15408,18.5,73668.3,2.85,1.05,1.13,0,*7D
1499011495.21,15409,18.5,73666.3,2.85,1.55,1.67,0,*7A
1499011496.47,15410,18.5,73674.3,2.85,2.09,2.13,0,*78
1499011497.73,15411,18.5,73682.5,2.85,2.25,2.17,0,*73
1499011498.96,15412,18.5,73690.5,2.85,2.35,2.39,0,*7D
1499011500.19,15413,18.5,73684.8,2.87,2.51,2.43,0,*71
1499011501.42,15414,18.5,73694.0,2.87,2.51,2.55,0,*71
1499011502.63,15415,18.5,73684.5,2.85,2.27,2.35,0,*75
1499011503.86,15416,18.5,73676.0,2.87,2.51,2.51,0,*77
1499011505.09,15417,18.5,73668.3,2.87,2.51,2.55,0,*72
1499011506.35,15418,18.5,73678.3,2.89,2.43,2.43,0,*77
1499011507.58,15419,18.5,73686.0,2.89,2.73,2.65,0,*71
1499011508.77,15420,18.5,73686.3,2.91,2.65,2.65,0,*75
1499011510.02,15421,18.5,73684.5,2.89,2.73,2.73,0,*7D
1499011511.25,15422,18.5,73686.0,2.91,2.69,2.77,0,*78
1499011512.46,15423,18.5,73678.8,2.89,2.65,2.61,0,*7B
1499011513.69,15424,18.5,73682.3,2.91,2.69,2.69,0,*71
1499011514.92,15425,18.5,73684.5,2.91,2.59,2.59,0,*70
1499011516.13,15426,18.5,73686.8,2.91,2.59,2.65,0,*7C
1499011517.38,15427,18.5,73682.0,2.89,2.69,2.77,0,*74
1499011518.61,15428,18.5,73688.5,2.91,2.77,2.81,0,*74
1499011519.85,15429,18.5,73694.3,2.91,2.81,2.81,0,*7C
1499011521.09,15430,18.5,73686.5,2.93,2.85,2.85,0,*76
1499011522.34,15431,18.5,73692.5,2.93,2.85,2.85,0,*77
1499011523.57,15432,18.5,73688.8,2.95,2.51,2.51,0,*72
1499011524.82,15433,18.5,73694.3,2.93,2.47,2.39,0,*7C
1499011526.04,15434,18.5,73690.8,2.95,2.73,2.73,0,*74
1499011527.29,15435,18.5,73690.0,2.93,2.73,2.73,0,*73
1499011528.54,15436,18.5,73690.8,2.93,2.51,2.47,0,*77
1499011529.79,15437,18.5,73692.0,2.93,2.51,2.51,0,*71
1499011531.02,15438,18.5,73692.8,2.95,1.97,1.97,0,*78
1499011532.27,15439,18.5,73682.5,2.93,2.09,2.09,0,*7F
1499011533.47,15440,18.5,73682.5,2.91,2.35,2.43,0,*72
1499011534.69,15441,18.5,73674.8,2.91,2.21,2.21,0,*72
1499011535.92,15442,18.5,73676.3,2.91,2.47,2.47,0,*71
1499011537.15,15443,18.5,73682.0,2.91,2.47,2.55,0,*73
1499011538.36,15444,18.5,73678.5,2.91,2.43,2.35,0,*76
1499011539.6,15445,18.5,73680.3,2.93,2.69,2.69,0,*74
1499011540.83,15446,18.5,73680.3,2.95,2.81,2.81,0,*71
1499011542.05,15447,18.5,73672.5,2.95,2.69,2.69,0,*70
1499011543.29,15448,18.5,73678.5,2.93,2.85,2.85,0,*79
1499011544.54,15449,18.5,73684.3,2.93,2.69,2.73,0,*73
1499011545.72,15450,18.5,73686.3,2.95,2.91,2.99,0,*7E
1499011546.91,15451,18.5,73680.5,2.93,2.95,2.95,0,*71
1499011548.09,15452,18.5,73680.3,2.95,2.95,2.99,0,*78
1499011549.26,15453,18.5,73682.0,2.95,2.99,2.99,0,*75
1499011550.49,15454,18.5,73682.5,2.95,2.81,2.85,0,*76
1499011551.71,15455,18.5,73682.0,2.97,2.89,2.99,0,*70
1499011552.92,15456,18.5,73678.5,2.97,2.95,2.95,0,*72
1499011554.12,15457,18.5,73676.5,3.01,2.89,2.95,0,*70
1499011555.37,15458,18.5,73676.8,2.97,2.73,2.73,0,*7C
1499011556.63,15459,18.5,73676.5,2.97,2.51,2.51,0,*7D
1499011557.86,15460,18.5,73680.8,3.01,2.89,2.89,0,*79
1499011559.11,15461,18.5,73680.8,2.97,2.73,2.77,0,*72
1499011560.29,15462,18.5,73674.5,3.01,2.61,2.61,0,*7B
1499011561.52,15463,18.5,73680.0,2.97,2.25,2.27,0,*76
1499011562.75,15464,18.5,73682.0,3.01,2.43,2.39,0,*70
1499011563.99,15465,18.5,73680.0,2.97,2.65,2.51,0,*75
1499011565.2,15466,18.5,73682.8,2.97,2.61,2.61,0,*71
1499011566.41,15467,18.5,73682.5,2.97,2.65,2.65,0,*70
1499011567.61,15468,18.5,73678.3,2.97,2.31,2.31,0,*7F
1499011568.86,15469,18.5,73674.0,2.97,1.93,1.93,0,*7E
1499011570.09,15470,18.5,73662.0,2.95,2.01,2.13,0,*77
1499011571.27,15471,18.5,73656.8,2.95,2.27,2.27,0,*75
1499011572.5,15472,18.5,73662.8,2.95,2.51,2.59,0,*7E
1499011573.68,15473,18.5,73662.5,2.95,2.61,2.61,0,*77
1499011574.9,15474,18.5,73654.0,2.95,2.69,2.73,0,*7B
1499011576.1,15475,18.5,73668.0,2.95,2.61,2.69,0,*79
1499011577.32,15476,18.5,73666.3,2.95,2.85,2.85,0,*72
1499011578.57,15477,18.5,73660.8,2.97,2.89,2.89,0,*71
1499011579.78,15478,18.5,73662.8,2.97,2.95,2.95,0,*7E
1499011580.98,15479,18.5,73656.8,2.97,2.95,2.95,0,*7F
1499011582.16,15480,18.5,73656.0,3.01,2.95,2.95,0,*77
1499011583.36,15481,18.5,73664.3,2.97,2.95,2.95,0,*78
1499011584.53,15482,18.5,73662.5,3.01,2.95,2.95,0,*75
1499011585.76,15483,18.5,73658.5,3.01,2.89,2.85,0,*78
1499011586.94,15484,18.5,73664.5,3.01,2.65,2.65,0,*73
1499011588.12,15485,18.5,73666.0,3.01,2.31,2.27,0,*75
1499011589.37,15486,18.5,73660.3,2.97,2.05,2.13,0,*78
1499011590.6,15487,18.5,73670.8,3.01,2.25,2.17,0,*71
1499011591.86,15488,18.5,73672.5,2.97,2.43,2.39,0,*7C
1499011593.06,15489,18.5,73668.8,2.95,2.39,2.35,0,*7E
1499011594.32,15490,18.5,73670.3,2.97,2.25,2.17,0,*79
1499011595.58,15491,18.5,73668.3,2.97,2.13,2.13,0,*79
1499011596.81,15492,18.5,73668.8,2.97,2.25,2.27,0,*78
1499011598.04,15493,18.5,73674.8,2.95,2.47,2.51,0,*7E
1499011599.27,15494,18.5,73680.8,2.95,2.39,2.51,0,*70
1499011600.52,15495,18.5,73678.0,2.93,2.25,2.25,0,*79
1499011601.77,15496,18.5,73664.0,2.93,2.47,2.47,0,*7A
1499011603.03,15497,18.5,73662.8,2.97,2.43,2.39,0,*72
1499011604.27,15498,18.5,73686.5,2.93,2.21,2.25,0,*70
1499011605.44,15499,18.5,73670.8,2.95,2.35,2.27,0,*70
1499011606.64,15500,18.5,73648.0,2.95,2.27,2.39,0,*7D
1499011607.82,15501,18.5,73662.8,2.95,2.35,2.27,0,*70
1499011609.07,15502,18.5,73666.0,2.93,1.97,2.01,0,*7A
1499011610.27,15503,18.5,73670.3,2.95,1.79,1.85,0,*72
1499011611.52,15504,18.5,73678.3,2.93,2.13,2.13,0,*70
1499011612.72,15505,18.5,73680.8,2.93,2.27,2.27,0,*71
1499011613.97,15506,18.5,73678.3,2.93,2.73,2.73,0,*72
1499011615.22,15507,18.5,73684.8,2.93,2.39,2.47,0,*7A
1499011616.46,15508,18.5,73692.5,2.93,2.73,2.73,0,*7C
1499011617.68,15509,18.5,73688.0,2.95,2.85,2.85,0,*7B
1499011618.91,15510,18.5,73692.0,2.95,2.81,2.73,0,*7E
1499011620.14,15511,18.5,73682.3,2.95,2.51,2.51,0,*72
1499011621.34,15512,18.5,73680.0,2.95,2.35,2.47,0,*74
1499011622.56,15513,18.5,73688.0,2.95,2.69,2.73,0,*7B
1499011623.78,15514,18.5,73682.3,2.95,2.73,2.73,0,*77
1499011624.96,15515,18.5,73686.8,2.95,1.79,1.79,0,*76
1499011626.18,15516,18.5,73682.3,2.93,2.21,2.27,0,*75
1499011627.4,15517,18.5,73684.3,2.95,2.69,2.73,0,*7F
1499011628.65,15518,18.5,73688.5,2.93,2.85,2.81,0,*79
1499011629.88,15519,18.5,73674.5,2.95,2.25,2.25,0,*7A
1499011631.07,15520,18.5,73678.3,2.95,1.89,1.79,0,*7F
1499011632.27,15521,18.5,73678.0,2.95,1.67,1.75,0,*72
1499011633.52,15522,18.5,73676.5,2.93,1.85,1.97,0,*77
1499011634.77,15523,18.5,73674.3,2.93,2.09,2.21,0,*7F
1499011636.02,15524,18.5,73674.3,2.93,2.47,2.39,0,*7B
1499011637.2,15525,18.5,73674.8,2.91,2.31,2.35,0,*75
1499011638.43,15526,18.5,73676.8,2.91,2.39,2.43,0,*7F
1499011639.65,15527,18.5,73670.8,2.91,2.21,2.21,0,*73
1499011640.92,15528,18.5,73666.8,2.89,2.17,2.17,0,*75
1499011642.16,15529,18.5,73664.0,2.89,1.89,1.89,0,*74
1499011643.34,15530,18.5,73666.0,2.91,2.31,2.31,0,*75
1499011644.6,15531,18.5,73666.3,2.89,2.43,2.43,0,*7D
1499011645.85,15532,18.5,73672.5,2.89,2.55,2.51,0,*7A
1499011647.08,15533,18.5,73672.3,2.89,2.43,2.31,0,*7A
1499011648.31,15534,18.5,73674.3,2.91,2.55,2.55,0,*71
1499011649.54,15535,18.5,73672.8,2.91,2.59,2.59,0,*70
1499011650.78,15536,18.5,73676.0,2.89,2.51,2.61,0,*79
1499011652.01,15537,18.5,73686.0,2.91,2.47,2.59,0,*7D
1499011653.24,15538,18.5,73684.0,2.91,2.59,2.55,0,*71
1499011654.47,15539,18.5,73688.8,2.91,2.43,2.47,0,*78
1499011655.7,15540,18.5,73694.5,2.93,2.61,2.59,0,*7B
1499011656.92,15541,18.5,73688.5,2.91,2.55,2.55,0,*73
1499011658.17,15542,18.5,73690.8,2.93,2.25,2.25,0,*72
1499011659.42,15543,18.5,73690.0,2.93,1.17,1.13,0,*77
1499011660.66,15544,18.5,73678.3,2.89,0.21,0.13,0,*7E
1499011661.91,15545,18.5,73670.0,2.89,0.47,0.47,0,*7E
1499011663.17,15546,18.5,73668.0,2.85,1.55,1.55,0,*71
1499011664.43,15547,18.5,73666.8,2.85,2.17,2.17,0,*70
1499011665.64,15548,18.5,73668.5,2.85,2.61,2.61,0,*7F
1499011666.87,15549,18.5,73668.0,2.85,2.61,2.69,0,*76
1499011668.08,15550,18.5,73670.3,2.87,2.61,2.73,0,*77
1499011669.26,15551,18.5,73674.8,2.87,2.61,2.61,0,*75
1499011670.45,15552,18.5,73676.5,2.87,2.65,2.65,0,*76
1499011671.7,15553,18.5,73676.5,2.85,2.69,2.73,0,*7E
1499011672.89,15554,18.5,73678.8,2.87,2.65,2.65,0,*70
1499011674.07,15555,18.5,73674.3,2.87,2.61,2.61,0,*71
1499011675.33,15556,18.5,73676.5,2.89,2.77,2.77,0,*7C
1499011676.58,15557,18.5,73674.0,2.89,2.85,2.85,0,*7D
1499011677.81,15558,18.5,73676.5,2.91,2.77,2.81,0,*72
1499011679.04,15559,18.5,73676.5,2.91,2.77,2.77,0,*7A
1499011680.28,15560,18.5,73678.3,2.93,2.81,2.85,0,*76
1499011681.49,15561,18.5,73678.3,2.93,2.61,2.61,0,*73
1499011682.74,15562,18.5,73674.8,2.93,2.81,2.85,0,*74
1499011683.98,15563,18.5,73676.0,2.93,2.73,2.85,0,*78
1499011685.23,15564,18.5,73682.3,2.93,2.85,2.81,0,*72
1499011686.48,15565,18.5,73676.0,2.93,2.81,2.81,0,*77
1499011687.7,15566,18.5,73678.5,2.95,2.13,2.21,0,*73
1499011688.94,15567,18.5,73680.8,2.93,2.51,2.61,0,*76
1499011690.16,15568,18.5,73686.3,2.93,2.61,2.69,0,*72
1499011691.4,15569,18.5,73682.8,2.93,2.69,2.69,0,*7B
1499011692.64,15570,18.5,73680.5,2.95,2.51,2.51,0,*75
1499011693.87,15571,18.5,73682.3,2.91,2.25,2.13,0,*75
1499011695.09,15572,18.5,73682.8,2.93,2.27,2.25,0,*73
1499011696.31,15573,18.5,73676.3,2.93,2.25,2.27,0,*72
1499011697.51,15574,18.5,73680.5,2.93,2.35,2.27,0,*74
1499011698.76,15575,18.5,73684.5,2.93,2.39,2.39,0,*76
1499011699.97,15576,18.5,73682.3,2.93,2.61,2.61,0,*75
1499011701.21,15577,18.5,73686.5,2.93,2.21,2.25,0,*70
1499011702.45,15578,18.5,73686.8,2.91,1.21,1.13,0,*78
1499011703.66,15579,18.5,73690.8,2.91,0.29,0.29,0,*78
1499011704.87,15580,18.5,73668.8,2.87,-0.23,-0.37,0,*7C
1499011706.05,15581,18.5,73624.3,2.83,0.09,-0.11,0,*68
1499011707.29,15582,18.5,73644.3,2.81,0.41,0.41,0,*7D
1499011708.53,15583,18.5,73652.5,2.81,1.13,1.01,0,*7F
1499011709.71,15584,18.5,73658.3,2.79,1.01,0.97,0,*42
1499011710.95,15585,18.5,73660.8,2.75,1.37,1.37,0,*71
1499011712.18,15586,18.5,73670.0,2.79,1.71,1.71,0,*7E
1499011713.42,15587,18.5,73674.5,2.75,1.37,1.37,0,*73
1499011714.65,15588,18.5,73670.5,2.75,1.67,1.67,0,*7C
1499011715.88,15589,18.5,73676.0,2.79,2.05,2.13,0,*76
1499011717.11,15590,18.5,73672.5,2.79,2.13,2.21,0,*78
1499011718.33,15591,18.5,73674.5,2.75,1.89,1.89,0,*74
1499011719.53,15592,18.5,73666.0,2.75,1.83,1.89,0,*7D
1499011720.73,15593,18.5,73648.8,2.75,1.89,1.83,0,*7C
1499011721.96,15594,18.5,73638.3,2.79,2.05,2.05,0,*7D
1499011723.2,15595,18.5,73656.8,2.75,2.01,2.05,0,*74
1499011724.43,15596,18.5,73674.5,2.75,2.01,2.05,0,*77
1499011725.65,15597,18.5,73644.0,2.75,1.59,1.59,0,*72
1499011726.9,15598,18.5,73654.0,2.75,1.33,1.37,0,*79
1499011728.13,15599,18.5,73662.3,2.75,1.25,1.33,0,*7B
1499011729.35,15600,18.5,73660.3,2.71,1.43,1.43,0,*7B
1499011730.57,15601,18.5,73668.0,2.71,1.89,1.97,0,*75
1499011731.83,15602,18.5,73678.0,2.73,1.97,1.97,0,*7B
1499011733.09,15603,18.5,73676.5,2.73,1.97,1.97,0,*7A
1499011734.27,15604,18.5,73672.8,2.71,1.75,1.79,0,*73
1499011735.5,15605,18.5,73680.3,2.71,1.55,1.51,0,*7A
1499011736.74,15606,18.5,73666.8,2.71,1.13,1.13,0,*7D
1499011737.97,15607,18.5,73668.8,2.69,1.41,1.37,0,*74
1499011739.2,15608,18.5,73664.8,2.71,1.55,1.43,0,*74
1499011740.45,15609,18.5,73660.5,2.69,1.59,1.63,0,*72
1499011741.7,15610,18.5,73666.5,2.69,1.97,1.97,0,*73
1499011742.95,15611,18.5,73672.0,2.69,1.93,1.93,0,*72